Location: Newark
(45.4422°N, 16.2769°E)
Time: 08:45:37
(UTC+00:00)

Vanguard 2 - Pass Details

Date: 16 December 2019
Orbit: 553 x 2938 km, 32.9° (Epoch: 21 January)

Event Time Altitude Azimuth Distance (km) Brightness Sun altitude
Rises 03:18:59 0° 271° (W) 6,300 - -32.1°
Reaches altitude 10° 03:23:12 10° 265° (W) 5,491 - -31.4°
Exits shadow 03:32:19 33° 240° (WSW) 4,112 10.7 -29.8°
Maximum altitude 03:38:40 42° 203° (SSW) 3,734 10.7 -28.7°
Drops below altitude 10° 03:53:34 10° 140° (SE) 5,278 12.4 -26.1°
Sets 03:57:33 0° 134° (SE) 6,043 12.9 -25.4°
